Location: Newark
(60.6561°N, 46.5772°E)
Time: 17:13:03
(UTC+00:00)

Tiros 1 despin weight - Pass Details

Date: 30 October 2019
Orbit: 594 x 642 km, 48.2° (Epoch: 12 November)

Event Time Altitude Azimuth Distance (km) Brightness Sun altitude
Rises 19:01:19 0° 220° (SW) 2,901 - -40.1°
Reaches altitude 10° 19:04:32 10° 196° (SSW) 2,006 - -40.3°
Maximum altitude 19:07:03 15° 163° (SSE) 1,728 - -40.4°
Drops below altitude 10° 19:09:35 10° 130° (SE) 2,023 - -40.6°
Sets 19:12:50 0° 107° (ESE) 2,940 - -40.8°
